Weather History for KSDM - November, 2011

Change the Weather History Date:

Saturday, November 26, 2011

  Actual Average Record
Temperature  
Mean Temperature 60 °F -  
Max Temperature 77 °F 65 °F 84 °F (2014)
Min Temperature 44 °F 45 °F 39 °F (2010)
Degree Days  
Heating Degree Days 4    
Growing Degree Days 10 (Base 50)    
Moisture  
Dew Point 40 °F    
Average Humidity 53    
Maximum Humidity 93    
Minimum Humidity 19    
Precipitation  
Precipitation 0.00 in - - ()
Sea Level Pressure  
Sea Level Pressure 30.23 in    
Wind  
Wind Speed 3 mph (ESE)    
Max Wind Speed 8 mph    
Max Gust Speed -    
Visibility 10 miles    
Events      
Averages and records for this station are not official NWS values.
T = Trace of Precipitation, MM = Missing Value Source: NWS Daily Summary

Daily Weather History Graph

Daily Weather History Graph

Search for Another Location

Airport or City:

Trip Planner

Search our weather history database for the weather conditions in past years. The results will help you decide how hot, cold, wet, or windy it might be!

Date:

Astronomy

Nov. 26, 2011 Rise Set
Actual Time 6:27 AM PST 4:42 PM PST
Civil Twilight 6:00 AM PST 5:09 PM PST
Nautical Twilight 5:30 AM PST 5:39 PM PST
Astronomical Twilight 5:01 AM PST 6:09 PM PST
Moon 7:59 AM PST (11/26) 6:21 PM PST (11/26)
Length of Visible Light 11h 08m
Length of Day
10h 15m
Waxing Crescent, 4% of the Moon is Illuminated
Nov 26
Waxing Crescent
Dec 2
First Quarter
Dec 10
Full
Dec 17
Last Quarter
Dec 24
New

Hourly Weather History & Observations

Time (PST) Temp. Windchill Dew Point Humidity Pressure Visibility Wind Dir Wind Speed Gust Speed Precip Events Conditions
12:53 AM 48.9 °F - 46.9 °F 93% 30.22 in 10.0 mi Calm Calm - N/A   Clear
1:53 AM 48.0 °F - 43.0 °F 83% 30.23 in 10.0 mi ENE 4.6 mph - N/A   Clear
2:53 AM 44.1 °F 40.8 °F 42.1 °F 93% 30.22 in 10.0 mi SE 5.8 mph - N/A   Clear
3:53 AM 46.9 °F - 43.0 °F 86% 30.22 in 9.0 mi SE 6.9 mph - N/A   Clear
4:53 AM 44.1 °F 40.1 °F 39.0 °F 82% 30.23 in 10.0 mi ESE 6.9 mph - N/A   Clear
5:53 AM 44.1 °F 40.8 °F 37.0 °F 76% 30.23 in 10.0 mi ESE 5.8 mph - N/A   Clear
6:53 AM 46.9 °F - 37.9 °F 71% 30.25 in 10.0 mi ESE 8.1 mph - N/A   Clear
7:53 AM 54.0 °F - 43.0 °F 66% 30.26 in 10.0 mi SE 6.9 mph - N/A   Clear
8:53 AM 62.1 °F - 44.1 °F 52% 30.27 in 10.0 mi Calm Calm - N/A   Clear
9:53 AM 72.0 °F - 41.0 °F 33% 30.26 in 10.0 mi Calm Calm - N/A   Clear
10:53 AM 75.0 °F - 37.0 °F 25% 30.25 in 10.0 mi Calm Calm - N/A   Clear
11:53 AM 75.9 °F - 42.1 °F 30% 30.21 in 10.0 mi WNW 4.6 mph - N/A   Clear
12:53 PM 77.0 °F - 37.9 °F 24% 30.19 in 10.0 mi WNW 6.9 mph - N/A   Clear
1:53 PM 77.0 °F - 36.0 °F 23% 30.18 in 10.0 mi West 5.8 mph - N/A   Clear
2:53 PM 75.9 °F - 30.9 °F 19% 30.19 in 10.0 mi West 4.6 mph - N/A   Clear
3:53 PM 71.1 °F - 48.9 °F 45% 30.20 in 10.0 mi WSW 3.5 mph - N/A   Clear
4:53 PM 66.0 °F - 44.1 °F 45% 30.21 in 10.0 mi Calm Calm - N/A   Clear
5:53 PM 62.1 °F - 43.0 °F 50% 30.22 in 10.0 mi Calm Calm - N/A   Clear
6:53 PM 63.0 °F - 41.0 °F 45% 30.23 in 10.0 mi Calm Calm - N/A   Clear
7:53 PM 57.9 °F - 39.9 °F 51% 30.23 in 10.0 mi East 3.5 mph - N/A   Clear
8:53 PM 59.0 °F - 37.9 °F 46% 30.23 in 10.0 mi East 5.8 mph - N/A   Clear
9:53 PM 54.0 °F - 37.0 °F 53% 30.23 in 10.0 mi Calm Calm - N/A   Clear
10:53 PM 57.0 °F - 34.0 °F 42% 30.23 in 10.0 mi ENE 3.5 mph - N/A   Clear
11:53 PM 60.1 °F - 30.0 °F 32% 30.22 in 10.0 mi Calm Calm - N/A   Clear